Location: Pella
(41.4080°N, 92.9160°W)
Time: 14:58:28
(UTC-06:00)

ASTRO E2 - Visible Passes

Search period start: 27 January 2015 00:00
Search period end: 06 February 2015 00:00
Orbit: 529 x 536 km, 31.4° (Epoch: 26 January)

Date Brightness Start Highest point End Pass type
(mag) Time Alt. Az. Time Alt. Az. Time Alt. Az.
29 Jan 5.4 06:46:13 10° SSW 06:48:36 15° SSE 06:51:02 10° SE visible
30 Jan 5.2 06:33:27 10° SSW 06:36:05 17° S 06:38:43 10° SE visible
31 Jan 5.1 06:20:46 10° SW 06:23:33 18° S 06:26:22 10° SE visible
01 Feb 4.9 06:08:07 10° SW 06:11:01 19° S 06:13:56 10° SE visible
02 Feb 4.8 05:56:00 12° SW 05:58:29 19° S 06:01:29 10° SE visible
03 Feb 4.7 05:44:18 16° SSW 05:45:57 20° S 05:48:58 10° SE visible
04 Feb 4.6 05:32:33 19° SSW 05:33:24 20° S 05:36:26 10° SE visible
05 Feb 4.6 05:20:47 20° S 05:20:51 20° S 05:23:51 10° SE visible
